Voltar ao catálogo

STARLINK-5122

AtivoComunicaçõesVLEO
NORAD 54179·PAYLOAD·🇺🇸 United States

Lançado Oct 28, 2022 de Vandenberg Space Force Base

Loading…

Próximas Passagens (próximas 24 horas)

TLE

AtualizadoSource: CelesTrak SupGP

Época: Sep 14, 2026, 20:57 UTC

1 54179C 22141Y   26257.87340278  .00031662  00000+0  93477-3 0  2574
2 54179  53.1566 219.6976 0001394  90.2173 311.3506 15.34397808    11

Acompanhe STARLINK-5122 em tempo real com AllMySat

Download on the App Store